Weather in Grindelwald

Switzerland     46°37′26″N   8°02′04″E
temp.,
°C
wind,
m/s
gust,
m/s
humid.,
%
clouds,
%
prec.,
mm/h
press.,
hPa
HPBL,
m
15 may, sat
sat1523:00−8nne129061 0.1 101812
02:00−9n129593 0.1 101845
05:00−9sse2285100 0.0 101717
08:00−3s2276100 0.0 1012118
11:00−3sse3488100 0.2 1011549
14:00−2sse3397100 1.8 1010345
17:00−2s2298100 2.7 1009261
20:00−2ssw2398100 6.9 1009139
16 may, sun
sun1623:00−2sw3396100 2.1 101070
02:00−3wsw239897 3.5 101176
05:00−4wsw239989 0.8 101171
08:00−2ssw3395100 0.8 1009120
11:000ssw33100100 0.1 1007160
14:00+1wsw3399100 0.5 1006197
17:000wsw33100100 3.8 1007284
20:00−1wsw3398100 7.5 1010161
17 may, mon
mon1723:00−3sw229458 0.4 101239
02:00−8w12734 0.4 101510
05:00−9wsw229331 0.0 101612
08:00−4w339855 0.0 1014187
11:00−3w329561 0.1 1013458
14:00−2w239657 0.2 1013552
17:00−1nw339382 0.7 1012396
20:00−4wnw228897 1.3 101414
18 may, tue
tue1823:00−4w2297100 0.8 101667
02:00−4nw339898 3.3 1016139
05:00−5w2298100 0.9 101877
08:00−5w339674 1.3 1019226
11:00−4wnw339497 0.4 1019546
14:00−3nw449899 3.1 1020403
17:00−3nw449491 1.8 1021523
20:00−5wnw339566 2.5 1024150
19 may, wed
wed1923:00−9w229323 0.0 102914
02:00−10wnw127581 0.0 102811
05:00−9wnw127697 0.0 102610
08:00−4wnw228291 0.0 1023116
11:00−3w339584 0.2 1022478
14:00−2wnw4598100 2.9 1021392
17:00−3nw448978 1.5 1023596
20:00−4nw3394100 2.3 1025282